Cosmos 1125 Rocket - Orbit

View from above orbital plane
View from above orbital plane
View from above satellite
View from above satellite

Ground track
Ground track

The orbit data is extracted from the following two-line orbital elements,

1 11511U 79078B   13168.85305155  .00000096  00000-0  41924-4 0  5323
2 11511 074.0381 118.4666 0015957 354.8262 068.4612 14.36223159768939
Epoch (UTC): 17 June 2013 20:28:23
Eccentricity: 0.0015957
inclination: 74.0381°
perigee height: 759 km
apogee height: 782 km
right ascension of ascending node: 118.4666°
argument of perigee: 354.8262°
revolutions per day: 14.36223159
mean anomaly at epoch: 68.4612°
orbit number at epoch: 76893

The dashed part of the orbit path shows where the satellite is in the earth's shadow,  

Developed and maintained by Chris Peat, Heavens-Above GmbH. Please read the updated FAQ before sending e-mail. Imprint. DLR